AB8KN-2 Weather Reports


Display with metric or nautical units.
time (UTC)temp
F
wind
direction
speed
MPH
gust
MPH
rain 1hr
in
rain 24hr
in
rain mn
in
humidity
%
barometer
mb
20260901083036 77 213 0.0 2.0 0.00 0.00 0.00 82 1017.3
20260901082015 77 191 0.0 3.0 0.00 0.00 0.00 82 1017.3
20260901081016 77 223 0.0 2.0 0.00 0.00 0.00 82 1017.2
20260901080015 77 203 0.0 3.0 0.00 0.00 0.00 82 1017.1
20260901075015 77 202 0.0 3.0 0.00 0.00 0.00 83 1017.2
20260901074016 77 229 0.0 2.0 0.00 0.00 0.00 83 1017.2
20260901073016 77 226 0.0 1.0 0.00 0.00 0.00 83 1017.1
20260901072016 78 217 0.0 2.0 0.00 0.00 0.00 83 1017.3
20260901071059 78 228 0.0 2.0 0.00 0.00 0.00 83 1017.3
20260901070016 78 166 0.0 2.0 0.00 0.00 0.00 82 1017.2
20260901065016 78 215 0.0 2.0 0.00 0.00 0.00 83 1017.2
20260901064017 78 207 0.0 2.0 0.00 0.00 0.00 84 1017.3
20260901063016 78 241 0.0 3.0 0.00 0.00 0.00 84 1017.2
20260901062017 78 194 0.0 1.0 0.00 0.00 0.00 84 1017.2
20260901061017 78 225 0.0 1.0 0.00 0.00 0.00 84 1017.2
20260901060017 78 210 0.0 1.0 0.00 0.00 0.00 84 1017.4
20260901055017 78 192 0.0 2.0 0.00 0.00 0.00 84 1017.5
20260901054017 78 249 0.0 1.0 0.00 0.00 0.00 84 1017.6
20260901053018 78 218 0.0 1.0 0.00 0.00 0.00 83 1017.5
20260901052018 79 0.0 0.0 0.00 0.00 0.00 82 1017.5
20260901051018 79 180 0.0 1.0 0.00 0.00 0.00 81 1017.4
20260901050038 80 276 0.0 1.0 0.00 0.00 0.00 80 1017.4
20260901045015 80 219 1.0 3.0 0.00 0.00 0.00 78 1017.4
20260901044016 81 220 1.0 5.0 0.00 0.00 0.00 77 1017.4
20260901043016 81 213 1.0 3.0 0.00 0.00 0.00 76 1017.2
20260901042016 81 234 1.0 3.0 0.00 0.00 0.00 76 1017.1
20260901041016 81 202 2.0 4.0 0.00 0.00 0.00 76 1016.9
20260901040016 81 212 2.0 5.0 0.00 0.00 0.00 76 1016.7
20260901035016 81 208 2.0 5.0 0.00 0.00 0.00 76 1016.7
20260901034016 80 210 3.0 7.0 0.00 0.00 0.00 77 1016.7
20260901033017 80 207 2.0 5.0 0.00 0.00 0.00 78 1016.8
20260901032016 79 200 1.0 4.0 0.00 0.00 0.00 78 1016.9
20260901031018 79 198 0.0 3.0 0.00 0.00 0.00 80 1017.2
20260901030017 77 217 0.0 1.0 0.00 0.00 0.00 83 1017.5
20260901025017 77 0.0 0.0 0.00 0.00 0.00 84 1017.8
20260901024017 77 54 0.0 0.0 0.00 0.00 0.00 84 1017.9
20260901023018 77 34 0.0 1.0 0.00 0.00 0.00 84 1018.1
20260901022018 77 0.0 0.0 0.00 0.00 0.00 84 1018.0
20260901021018 77 50 0.0 0.0 0.00 0.00 0.00 83 1018.1
20260901020018 77 0.0 0.0 0.00 0.00 0.00 83 1018.2
20260901015015 77 318 0.0 1.0 0.00 0.00 0.00 83 1018.4
20260901014035 77 0.0 0.0 0.00 0.00 0.00 81 1018.4
20260901013017 78 68 0.0 0.0 0.00 0.00 0.00 81 1018.4
20260901012017 78 0.0 0.0 0.00 0.00 0.00 80 1018.3
20260901011037 79 0.0 0.0 0.00 0.00 0.00 80 1018.1
20260901010017 79 0.0 0.0 0.00 0.00 0.00 78 1017.9
20260901005017 80 0.0 0.0 0.00 0.00 0.00 78 1017.9
20260901004018 80 0.0 0.0 0.00 0.00 0.00 76 1017.8
20260901003018 81 0.0 0.0 0.00 0.00 0.00 75 1017.9
20260901002018 82 259 0.0 1.0 0.00 0.00 0.00 73 1018.0
20260901001018 83 0.0 0.0 0.00 0.00 0.00 72 1017.9
20260901000015 84 0.0 0.0 0.00 0.00 0.00 70 1017.7
20260831235016 84 249 0.0 1.0 0.00 0.00 0.00 69 1017.7
20260831234016 85 0.0 0.0 0.00 0.00 0.00 68 1017.7
20260831233016 85 0.0 0.0 0.00 0.00 0.00 67 1017.7
20260831232016 85 263 0.0 1.0 0.00 0.00 0.00 66 1017.7
20260831231016 85 235 0.0 2.0 0.00 0.00 0.00 66 1017.6
20260831230018 86 212 0.0 2.0 0.00 0.00 0.00 65 1017.6
20260831225017 86 231 0.0 2.0 0.00 0.00 0.00 66 1017.5
20260831224019 86 211 0.0 2.0 0.00 0.00 0.00 64 1017.5
20260831223037 86 214 0.0 1.0 0.00 0.00 0.00 64 1017.4
20260831222017 86 230 0.0 2.0 0.00 0.00 0.00 64 1017.3
20260831221037 86 236 0.0 2.0 0.00 0.00 0.00 63 1017.2
20260831220017 86 192 0.0 1.0 0.00 0.00 0.00 61 1017.3
20260831215018 86 199 1.0 3.0 0.00 0.00 0.00 61 1017.2
20260831214017 87 240 1.0 3.0 0.00 0.00 0.00 62 1017.3
20260831213038 87 214 1.0 3.0 0.00 0.00 0.00 63 1017.4
20260831212015 87 245 1.0 3.0 0.00 0.00 0.00 63 1017.5
20260831211015 87 237 1.0 3.0 0.00 0.00 0.00 64 1017.5
20260831210016 87 213 2.0 6.0 0.00 0.00 0.00 62 1017.5
20260831205016 88 280 2.0 5.0 0.00 0.00 0.00 59 1017.7
20260831204036 87 246 1.0 4.0 0.00 0.00 0.00 60 1017.9
20260831203036 87 225 1.0 5.0 0.00 0.00 0.00 62 1017.9
20260831202016 87 245 1.0 3.0 0.00 0.00 0.00 63 1017.9
20260831201016 87 284 1.0 3.0 0.00 0.00 0.00 63 1018.0
20260831200017 87 249 1.0 3.0 0.00 0.00 0.00 61 1018.2
20260831195018 87 276 1.0 3.0 0.00 0.00 0.00 60 1018.3
20260831194018 87 275 2.0 5.0 0.00 0.00 0.00 60 1018.5
20260831193017 88 261 2.0 4.0 0.00 0.00 0.00 60 1018.5
20260831192017 88 251 1.0 4.0 0.00 0.00 0.00 60 1018.6
20260831191037 88 210 2.0 8.0 0.00 0.00 0.00 60 1018.5
20260831190038 88 291 2.0 7.0 0.00 0.00 0.00 61 1018.6
20260831185018 89 252 2.0 4.0 0.00 0.00 0.00 59 1018.7
20260831184020 89 266 1.0 3.0 0.00 0.00 0.00 58 1018.8
20260831183015 90 280 2.0 5.0 0.00 0.00 0.00 58 1018.9
20260831182018 90 285 2.0 6.0 0.00 0.00 0.00 57 1019.1
20260831181015 91 276 2.0 5.0 0.00 0.00 0.00 57 1019.1
20260831180036 90 277 2.0 6.0 0.00 0.00 0.00 57 1019.2
20260831175016 89 287 2.0 7.0 0.00 0.00 0.00 58 1019.0
20260831174036 88 286 2.0 6.0 0.00 0.00 0.00 59 1019.2
20260831173016 89 259 2.0 5.0 0.00 0.00 0.00 59 1019.2
20260831172016 89 284 2.0 7.0 0.00 0.00 0.00 58 1019.2
20260831171016 89 250 2.0 6.0 0.00 0.00 0.00 57 1019.3
20260831170017 89 217 2.0 6.0 0.00 0.00 0.00 58 1019.4
20260831165017 89 280 2.0 7.0 0.00 0.00 0.00 56 1019.4
20260831164017 89 271 2.0 7.0 0.00 0.00 0.00 57 1019.5
20260831163017 88 288 2.0 8.0 0.00 0.00 0.00 59 1019.5
20260831162017 88 289 2.0 8.0 0.00 0.00 0.00 59 1019.5
20260831161038 88 273 2.0 5.0 0.00 0.00 0.00 60 1019.5
20260831160017 88 212 2.0 7.0 0.00 0.00 0.00 60 1019.5
20260831155017 87 287 1.0 6.0 0.00 0.00 0.00 62 1019.5
20260831154058 87 293 1.0 5.0 0.00 0.00 0.00 62 1019.4
20260831153018 86 265 1.0 5.0 0.00 0.00 0.00 65 1019.3
20260831152018 86 282 1.0 4.0 0.00 0.00 0.00 65 1019.3
20260831151016 86 269 2.0 5.0 0.00 0.00 0.00 64 1019.3
20260831150016 85 282 1.0 6.0 0.00 0.00 0.00 65 1019.4
20260831145016 83 274 1.0 3.0 0.00 0.00 0.00 68 1019.5
20260831144036 82 358 1.0 2.0 0.00 0.00 0.00 70 1019.4
20260831143016 82 252 0.0 3.0 0.00 0.00 0.00 71 1019.3
20260831142016 82 251 0.0 2.0 0.00 0.00 0.00 73 1019.1
20260831141017 81 223 1.0 3.0 0.00 0.00 0.00 73 1019.0
20260831140016 79 208 1.0 3.0 0.00 0.00 0.00 75 1019.2
20260831135016 78 216 0.0 2.0 0.00 0.00 0.00 77 1019.2
20260831134017 77 200 0.0 1.0 0.00 0.00 0.00 80 1019.4
20260831133017 76 211 1.0 2.0 0.00 0.00 0.00 81 1019.4
20260831132037 76 97 0.0 1.0 0.00 0.00 0.00 86 1019.5
20260831131017 75 73 0.0 1.0 0.00 0.00 0.00 87 1019.4
20260831130018 75 0.0 0.0 0.00 0.00 0.00 88 1019.4
20260831125017 74 0.0 0.0 0.00 0.00 0.00 90 1019.4
20260831124015 74 0.0 0.0 0.00 0.00 0.00 90 1019.4
20260831123018 74 80 0.0 2.0 0.00 0.00 0.00 90 1019.3
20260831122020 73 215 0.0 1.0 0.00 0.00 0.00 89 1019.3
20260831121015 73 90 0.0 1.0 0.00 0.00 0.00 90 1019.1
20260831120015 73 0.0 0.0 0.00 0.00 0.00 90 1019.0
20260831115016 73 78 0.0 1.0 0.00 0.00 0.00 90 1018.9
20260831114016 73 83 0.0 2.0 0.00 0.00 0.00 90 1018.8
20260831113016 73 80 0.0 0.0 0.00 0.00 0.00 91 1018.9
20260831112016 73 76 0.0 1.0 0.00 0.00 0.00 91 1018.7
20260831111016 73 114 0.0 1.0 0.00 0.00 0.00 91 1018.7
20260831110016 73 85 0.0 2.0 0.00 0.00 0.00 91 1018.7
20260831105017 73 79 0.0 1.0 0.00 0.00 0.00 91 1018.7
20260831104037 73 161 0.0 2.0 0.00 0.00 0.00 91 1018.7
20260831103017 73 91 0.0 1.0 0.00 0.00 0.00 92 1018.6
20260831102017 73 82 0.0 1.0 0.00 0.00 0.00 92 1018.6
20260831101017 73 76 0.0 1.0 0.00 0.00 0.00 92 1018.5
20260831100017 73 86 0.0 1.0 0.00 0.00 0.00 91 1018.5
20260831095017 73 154 0.0 1.0 0.00 0.00 0.00 91 1018.6
20260831094018 73 212 0.0 2.0 0.00 0.00 0.00 91 1018.6
20260831093018 73 223 0.0 2.0 0.00 0.00 0.00 91 1018.6
20260831092018 73 70 0.0 0.0 0.00 0.00 0.00 90 1018.5
20260831091015 74 72 0.0 2.0 0.00 0.00 0.00 90 1018.5
20260831090015 74 91 0.0 1.0 0.00 0.00 0.00 89 1018.6
20260831085015 74 108 0.0 1.0 0.00 0.00 0.00 88 1018.5
20260831084015 74 0.0 0.0 0.00 0.00 0.00 88 1018.5